WS6A-13 Weather Reports


Display with metric or nautical units.
time (UTC)temp
F
wind
direction
speed
MPH
gust
MPH
rain 1hr
in
rain 24hr
in
rain mn
in
humidity
%
barometer
mb
20260504081504 51 244 0.0 0.0 0.00 0.00 0.00 72 1009.6
20260504050004 52 82 0.0 0.0 0.00 0.00 0.00 70 1011.3
20260504044504 52 82 0.0 0.0 0.00 0.00 0.00 68 1011.5
20260504043004 53 87 0.0 0.0 0.00 0.00 0.00 67 1011.6
20260504034504 54 105 0.0 0.0 0.00 0.00 0.00 66 1012.1
20260504033003 53 106 0.0 0.0 0.00 0.00 0.00 68 1012.1
20260504031504 53 205 0.0 0.0 0.00 0.00 0.00 68 1012.2
20260504030003 53 205 0.0 0.0 0.00 0.00 0.00 71 1012.3
20260504024504 53 205 0.0 0.0 0.00 0.00 0.00 68 1012.5
20260504023004 53 205 0.0 0.0 0.00 0.00 0.00 68 1012.5
20260504021504 53 205 0.0 0.0 0.00 0.00 0.00 74 1012.6
20260504014504 53 205 0.0 0.0 0.00 0.00 0.00 76 1012.4
20260504010004 54 205 0.0 0.0 0.00 0.00 0.00 74 1012.5
20260504004504 54 205 0.0 0.0 0.00 0.00 0.00 68 1012.4
20260504003004 53 206 0.0 1.0 0.00 0.00 0.00 68 1012.3
20260504001504 53 111 0.0 0.0 0.00 0.00 0.00 72 1012.2
20260504000003 53 111 0.0 0.0 0.00 0.00 0.00 72 1012.0
20260503234504 54 111 0.0 0.0 0.00 0.00 0.00 70 1011.9
20260503233004 54 111 0.0 0.0 0.00 0.00 0.00 70 1012.2
20260503230004 55 112 0.0 0.0 0.00 0.00 0.00 67 1013.0
20260503224503 55 123 0.0 0.0 0.00 0.00 0.00 65 1013.3
20260503221503 57 65 0.0 0.0 0.00 0.00 0.00 58 1013.9
20260503220003 57 103 0.0 0.0 0.00 0.00 0.00 58 1013.7
20260503214504 56 76 0.0 0.0 0.00 0.00 0.00 61 1013.8
20260503213004 55 78 0.0 0.0 0.00 0.00 0.00 57 1014.0
20260503210005 56 115 0.0 12.0 0.00 0.00 0.00 53 1014.5
20260503204504 59 167 2.0 9.0 0.00 0.00 0.00 47 1015.2
20260503203003 60 244 0.0 3.0 0.00 0.00 0.00 45 1014.8
20260503201504 60 221 1.0 6.0 0.00 0.00 0.00 45 1014.6
20260503194504 62 273 1.0 7.0 0.00 0.00 0.00 41 1014.9
20260503193004 62 218 0.0 3.0 0.00 0.00 0.00 47 1015.3
20260503183004 62 288 0.0 6.0 0.00 0.00 0.00 44 1016.1
20260503181517 63 217 2.0 5.0 0.00 0.00 0.00 47 1016.4
20260503180004 62 209 2.0 8.0 0.00 0.00 0.00 52 1016.5
20260503174503 61 11 1.0 3.0 0.00 0.00 0.00 45 1016.6
20260503173004 61 214 2.0 6.0 0.00 0.00 0.00 48 1017.1